Theta_e
306 306 306 306 305 306 307 308 308 308 308 307 307 308 309 309 309 308 308 309 309 309 309 309 309 309 308 308 308 308 308 309 309 310 309 308 310 311 311 312 312 312 313 313 313 312 311 313 315 317 318 317 316 315 315 315 314 316 318 316 317 317 316 315 316 314 311 308 306 306 306 306 304 304 304 303 304 303 303 302 301 300 298 297 295 294 294 295
306 306 306 306 305 306 307 308 308 308 308 308 307 308 308 309 309 309 309 308 309 309 310 310 309 309 309 309 309 309 308 309 309 309 309 309 311 312 312 312 312 312 312 312 312 312 312 313 314 315 316 314 312 313 314 313 312 313 315 314 313 313 311 311 312 310 309 307 305 305 305 305 304 304 304 301 300 301 301 301 300 299 297 296 295 295 295 296
306 306 306 306 305 306 307 308 308 309 309 309 308 307 308 308 309 309 309 309 309 309 310 309 309 309 309 309 309 310 310 309 309 308 308 310 311 311 312 312 312 312 312 311 311 311 311 312 313 314 314 311 310 312 312 312 311 309 311 311 310 309 307 308 309 308 307 306 304 303 304 303 303 303 302 300 299 299 299 300 300 299 297 296 296 296 296 296
306 306 306 305 305 306 307 307 308 309 309 309 309 308 308 308 308 309 309 309 309 310 310 310 309 309 309 309 309 309 310 310 308 306 308 309 310 311 311 311 311 312 312 312 311 311 312 312 312 313 312 309 309 311 309 309 310 308 308 310 309 307 306 306 306 306 306 306 303 303 303 301 302 303 302 302 303 300 298 299 300 298 297 297 296 296 296 296
305 306 306 306 306 307 307 307 308 309 309 309 309 309 309 309 309 309 309 309 308 310 310 311 310 309 309 309 309 308 310 311 306 305 308 308 309 310 310 311 311 311 312 312 312 311 312 312 312 312 310 306 307 309 307 307 308 306 305 307 307 307 306 305 305 306 305 305 304 302 302 301 301 302 301 302 303 299 298 299 298 297 296 296 296 296 296 296
305 305 306 307 307 307 308 307 307 308 309 309 309 309 309 309 309 309 310 309 309 309 309 309 309 309 309 309 309 308 310 309 305 305 307 308 308 309 310 311 311 311 311 311 311 311 312 312 312 309 306 305 305 306 306 307 307 306 305 305 306 307 306 305 306 306 306 306 303 301 301 301 300 298 298 299 299 298 298 297 297 296 296 296 296 296 297 297
305 305 306 307 307 307 307 307 307 308 308 309 309 309 309 309 310 310 310 310 310 310 309 309 308 309 309 309 310 309 307 305 305 306 306 307 308 308 309 311 311 311 311 311 311 311 312 312 311 307 306 306 305 305 306 306 306 306 304 303 304 306 305 306 307 306 307 306 302 302 302 300 299 298 297 297 297 297 297 297 297 297 297 297 297 297 297 298
305 305 306 307 308 307 307 307 307 308 308 309 309 310 310 310 310 310 310 310 310 310 310 310 309 310 310 310 311 309 305 304 305 306 306 307 308 308 309 310 311 311 311 311 311 312 312 311 310 309 307 306 306 305 306 306 305 304 304 303 303 304 304 306 306 306 305 303 303 303 301 299 299 299 297 297 298 298 298 298 298 298 298 298 298 298 298 298
305 305 306 308 309 308 308 308 308 308 309 309 309 310 310 310 309 310 310 310 310 310 310 310 310 311 310 311 311 309 305 304 305 306 306 307 308 308 309 309 310 310 311 311 311 312 312 311 310 311 308 306 306 306 306 307 306 304 304 303 302 302 303 305 304 304 303 302 304 302 298 299 300 300 299 298 298 298 298 298 298 298 298 299 299 298 298 298
306 306 308 309 309 308 309 309 308 309 309 309 310 310 310 310 309 310 310 310 311 310 309 309 310 310 311 311 311 308 305 305 305 306 307 307 308 308 309 309 309 310 310 310 310 310 311 310 309 310 307 305 305 305 306 307 306 304 304 303 303 303 303 305 303 303 303 301 303 301 298 300 300 300 300 298 298 298 298 298 298 299 299 299 299 298 298 298
306 307 309 309 308 309 309 309 309 309 309 309 310 310 310 310 309 309 310 310 309 309 309 309 309 310 311 311 309 306 305 305 305 306 307 307 307 308 308 308 308 309 309 309 309 309 309 309 308 308 307 305 305 304 305 305 305 304 304 303 302 303 303 303 302 302 302 301 302 301 299 300 300 300 300 298 299 298 298 298 298 299 299 299 299 298 298 298
307 308 309 308 308 309 309 309 309 309 309 309 310 310 310 310 310 310 310 309 309 309 310 311 311 311 312 310 306 305 305 305 306 306 307 307 307 307 307 307 307 308 308 308 308 308 308 308 308 308 306 305 304 303 303 304 304 303 303 302 301 303 302 302 302 302 302 302 302 302 302 302 301 300 299 299 299 298 299 299 299 299 299 299 299 299 299 299
308 308 308 307 308 308 308 308 308 308 308 309 310 310 310 310 310 310 310 310 310 310 310 311 311 311 312 309 305 305 306 305 306 306 306 307 307 308 307 307 307 307 307 308 307 307 307 307 308 307 304 304 303 303 303 303 303 303 302 302 304 306 304 302 302 303 303 302 301 303 305 305 302 300 298 299 299 299 299 299 300 300 299 299 299 299 299 299
308 308 308 308 309 309 309 309 309 308 308 309 309 310 311 310 310 311 311 310 311 311 311 311 311 311 311 307 305 306 306 306 306 307 307 307 308 309 308 307 307 307 307 307 307 307 307 307 307 305 304 304 303 303 303 302 302 303 303 304 307 308 305 303 302 302 303 302 302 304 306 305 304 300 299 299 298 299 300 300 300 300 300 299 299 300 299 299
308 308 309 310 310 310 310 310 309 309 309 309 309 310 310 310 311 311 311 311 311 312 312 312 312 311 309 306 306 306 306 307 307 307 307 308 309 309 309 309 308 307 307 307 307 307 307 307 307 304 303 304 304 304 305 307 306 303 306 309 308 306 305 304 301 301 303 302 301 303 305 304 303 300 299 299 298 299 300 300 300 300 300 300 299 299 299 299
310 310 311 310 310 310 310 310 310 310 310 310 310 310 310 311 311 312 312 311 311 311 312 312 312 311 310 307 307 307 307 307 307 308 308 308 309 309 310 309 309 309 308 308 307 307 308 308 306 304 304 304 304 307 308 311 310 306 307 309 307 305 304 304 302 300 301 302 301 302 304 303 301 299 299 299 299 299 300 300 300 300 300 299 299 299 299 299
311 311 310 310 310 310 310 310 310 310 310 310 310 311 310 311 312 313 313 313 312 312 311 311 311 312 310 307 307 307 307 307 307 308 309 309 309 309 310 309 309 309 308 309 308 308 308 307 306 304 303 302 301 309 314 311 309 307 306 305 304 305 305 304 304 301 300 302 302 301 303 302 300 299 299 299 299 299 300 300 300 300 299 299 299 299 299 299
310 311 310 310 310 310 310 310 310 310 310 311 311 311 311 311 311 312 312 313 313 312 312 311 312 314 310 307 307 306 306 307 308 308 309 309 309 309 309 308 309 308 308 307 306 307 306 304 304 303 303 301 299 307 314 310 308 308 307 307 304 303 305 304 304 302 300 302 303 302 302 301 300 298 298 300 299 299 300 300 300 299 299 299 299 299 299 299
308 309 309 309 309 309 309 309 308 309 310 312 313 312 312 312 312 312 312 312 312 311 310 309 309 311 309 306 307 307 307 307 308 309 309 309 309 308 308 308 309 308 306 307 306 304 304 304 304 304 303 303 301 302 305 306 307 307 308 309 306 305 304 303 303 301 301 303 303 304 304 301 300 299 299 300 300 300 300 299 300 299 299 299 299 299 299 299
307 307 307 307 307 307 307 308 308 310 312 314 315 314 314 313 312 311 310 310 309 307 307 307 306 307 306 305 307 307 307 308 308 309 309 310 309 308 308 307 307 307 305 306 306 303 303 304 304 303 302 302 302 300 301 303 304 304 306 306 305 306 304 302 304 301 300 304 303 303 303 301 301 300 298 300 300 300 300 300 300 299 299 299 299 299 299 299
308 307 307 307 308 308 308 308 311 313 314 315 315 315 314 313 313 310 308 308 308 308 308 307 307 307 306 306 307 307 307 308 308 308 309 309 310 309 309 307 308 308 303 303 305 303 303 304 303 302 301 300 300 300 302 303 304 304 305 306 305 306 305 301 303 301 299 303 303 301 302 302 302 300 298 300 300 300 301 300 300 299 299 299 299 299 299 299
309 308 309 308 309 309 308 311 313 313 313 313 313 314 314 314 314 312 310 309 308 309 309 308 308 308 307 307 306 307 308 308 308 307 307 308 309 308 306 305 306 306 302 304 308 305 304 305 304 301 299 299 299 299 303 305 306 306 307 310 308 305 304 304 305 304 300 302 303 301 302 303 303 300 298 299 300 300 301 300 300 300 299 300 299 299 299 299
308 309 309 308 309 309 309 311 313 312 311 311 311 312 313 313 313 312 313 311 309 309 310 309 309 308 308 308 307 307 307 307 307 307 308 307 307 306 304 303 304 304 302 307 311 307 307 305 302 300 298 303 305 302 304 306 305 306 309 312 309 303 304 305 305 305 302 301 303 304 305 304 302 299 298 299 300 300 300 300 300 300 300 300 299 299 299 299
308 308 308 309 309 308 309 310 311 312 311 310 310 310 311 311 312 312 311 311 310 309 310 309 309 309 308 307 308 307 307 305 305 306 308 308 307 307 305 303 305 305 303 304 306 305 306 302 300 300 300 305 309 305 305 308 306 305 307 308 306 302 303 304 304 306 306 303 303 307 309 308 306 303 302 301 299 299 300 300 300 300 300 300 299 299 299 299
307 307 307 308 308 308 309 309 310 311 310 311 310 309 310 309 310 311 312 317 314 308 310 310 308 309 307 308 309 307 306 306 305 306 307 308 308 307 306 304 306 307 304 304 305 305 303 300 301 305 304 305 307 305 303 305 309 306 303 303 303 302 304 306 307 307 308 306 304 304 306 310 310 306 306 303 300 300 299 299 300 300 300 300 299 300 299 299
306 307 307 306 307 308 309 309 310 310 310 310 309 309 309 307 309 309 315 327 320 308 310 310 309 310 308 307 308 309 310 308 305 305 306 307 308 307 308 307 305 306 305 303 304 303 302 300 301 305 307 305 305 305 300 303 313 309 301 301 303 303 306 308 308 306 306 307 303 300 302 308 311 308 309 306 302 302 300 298 300 300 300 300 300 300 299 299
306 307 306 306 307 307 308 308 308 309 309 309 308 310 308 307 309 307 316 331 320 307 309 310 309 309 307 306 307 310 313 309 306 306 305 306 307 308 311 310 308 307 302 304 308 303 302 304 302 304 306 304 304 304 300 302 311 307 301 302 304 305 306 306 306 306 305 305 304 304 303 305 312 312 309 305 301 304 304 300 299 300 300 300 299 299 299 299
307 306 306 307 306 306 307 307 308 308 308 308 308 308 308 308 307 307 321 328 314 308 308 308 309 308 308 307 306 308 309 307 307 307 304 306 305 305 308 305 306 305 300 307 313 302 300 305 303 303 306 304 304 303 300 301 306 303 300 302 302 303 304 304 307 309 307 305 307 309 303 304 316 316 308 303 300 303 307 304 300 299 299 299 299 299 299 299
307 307 307 306 306 306 306 306 307 307 307 308 308 308 308 307 305 314 328 321 308 309 308 307 309 308 307 308 306 305 306 306 307 306 305 306 306 304 305 302 301 302 300 305 310 302 300 302 301 302 304 303 303 301 299 300 303 300 298 301 304 305 306 305 306 309 309 308 309 309 301 302 314 315 307 302 301 304 307 303 299 299 299 299 299 300 299 299
307 307 307 307 307 306 306 306 306 307 308 308 308 309 307 308 318 328 327 314 308 308 307 308 308 306 307 311 309 305 304 305 305 304 304 304 305 305 304 303 302 304 305 304 306 304 300 300 300 301 302 300 300 300 297 298 300 299 301 306 308 308 309 308 307 308 310 313 313 308 301 300 308 314 309 303 303 307 307 302 298 298 300 300 300 300 299 299
307 307 307 307 307 306 307 306 306 307 307 308 308 308 307 315 331 335 317 308 308 309 308 308 307 306 309 311 309 306 306 306 303 305 307 303 304 304 305 307 306 311 316 311 307 306 303 304 302 299 300 298 299 301 298 298 299 301 305 307 306 309 310 310 314 311 309 314 313 306 301 299 304 314 312 306 306 304 302 302 301 299 300 300 299 299 299 299
307 307 307 307 307 307 308 306 307 307 307 309 307 307 315 322 326 321 311 308 309 310 309 307 305 306 309 310 308 305 307 307 303 304 306 303 302 302 302 306 307 312 318 313 310 310 306 304 302 299 299 298 300 304 303 300 301 305 310 309 311 316 312 313 319 312 308 312 306 301 301 301 304 311 311 308 306 301 299 301 301 299 300 300 299 299 299 299
307 307 307 307 307 308 308 307 308 307 307 309 304 310 328 331 317 310 310 311 307 305 305 305 305 305 308 312 309 305 306 306 304 302 302 303 304 302 300 299 299 307 313 310 311 316 311 306 304 302 301 298 299 305 306 304 305 307 309 311 317 319 312 313 316 308 308 313 304 298 301 304 307 308 307 306 303 300 300 300 300 300 299 299 299 299 299 299
307 307 307 307 308 307 308 308 308 307 308 308 308 319 331 323 311 308 309 310 306 304 305 305 307 307 307 309 306 305 308 306 303 304 304 308 311 308 305 301 298 304 312 311 310 314 315 311 306 303 301 299 299 300 301 301 304 306 303 306 312 313 310 311 312 308 308 311 306 300 302 309 309 304 303 302 299 299 300 299 299 300 299 299 299 299 299 299
307 308 306 307 308 307 308 309 308 308 307 309 317 330 327 313 311 313 311 308 306 307 306 305 310 313 310 309 304 303 307 305 304 306 308 310 309 306 305 303 300 301 308 311 308 307 311 308 304 301 299 299 299 297 297 300 304 304 302 308 309 308 311 309 305 306 304 305 309 306 304 308 305 300 299 298 298 299 299 299 299 299 300 300 299 299 299 299
307 308 307 307 308 307 309 309 310 309 307 314 326 326 316 309 310 313 311 307 306 308 307 308 313 314 311 310 308 307 305 303 306 310 309 305 303 303 303 302 300 299 303 308 307 307 311 308 303 303 300 298 298 297 296 299 303 304 305 308 302 300 309 309 302 301 300 303 310 307 304 308 304 302 301 298 300 300 298 299 300 300 300 299 299 300 300 299
307 308 307 307 307 308 309 308 311 312 308 317 327 317 306 303 304 307 306 303 304 305 309 312 309 309 311 311 310 310 307 303 307 314 310 304 303 303 303 302 299 298 299 302 304 304 310 312 305 302 302 299 298 298 298 297 299 305 308 304 298 298 306 308 306 308 307 308 312 307 305 308 306 306 304 300 301 302 300 298 299 300 300 299 300 300 300 300
307 308 307 307 307 308 310 308 310 312 310 316 322 310 303 302 300 300 301 301 302 305 311 314 306 304 310 312 309 307 307 308 311 313 310 306 306 301 300 301 299 297 296 299 303 300 304 313 308 302 302 300 296 299 303 300 297 300 301 299 300 303 306 306 307 311 310 308 311 310 306 304 305 307 306 302 302 304 303 299 297 299 300 300 300 300 300 300
308 308 307 307 307 308 311 310 308 311 314 320 321 310 304 303 300 298 300 300 302 305 309 310 305 304 307 309 308 305 305 308 309 310 308 307 306 301 298 299 299 298 296 297 302 299 300 310 310 304 300 299 300 303 305 306 301 300 301 301 303 305 306 306 304 307 309 307 309 311 311 310 309 308 307 305 304 306 306 302 298 299 300 300 300 300 299 299
308 309 307 306 307 308 310 310 309 313 317 316 313 307 303 303 301 297 299 300 300 304 307 307 306 307 306 305 305 303 305 307 306 307 307 305 304 302 297 297 299 299 297 297 300 299 300 306 310 309 304 301 305 304 302 304 304 304 306 305 304 303 303 304 301 302 308 309 308 308 311 316 312 306 306 306 303 302 303 301 299 300 300 300 300 299 299 299
308 309 308 306 307 307 309 312 308 308 311 308 305 303 302 302 300 297 298 299 299 301 304 306 306 308 307 306 304 303 306 309 306 305 305 303 304 304 298 295 297 298 298 300 301 300 302 305 308 311 310 308 306 299 295 297 298 300 302 302 304 303 304 308 305 302 303 305 308 307 309 314 309 301 302 304 301 299 300 300 299 300 300 300 300 300 299 299
307 309 307 306 308 307 310 313 302 300 309 307 302 303 303 301 299 299 299 299 299 299 301 303 304 305 307 306 304 305 307 309 306 304 304 303 303 303 298 295 296 297 298 301 299 296 299 305 309 311 308 304 299 294 293 294 293 295 296 297 300 301 306 311 309 306 302 300 302 303 305 312 308 296 296 300 299 299 300 299 299 300 300 300 300 300 299 299
306 308 307 307 308 307 310 314 304 302 305 302 298 299 301 300 299 300 300 299 300 300 301 302 302 303 304 301 303 306 305 305 304 302 303 304 301 299 296 295 296 296 298 301 299 296 299 303 309 314 312 304 297 293 291 290 292 297 298 297 298 300 303 306 305 305 304 301 302 302 305 314 308 296 296 299 299 299 300 299 299 300 300 300 300 299 299 299
306 307 307 307 308 308 315 318 314 309 303 298 298 299 299 299 299 301 301 300 300 300 302 303 301 301 300 299 302 303 301 303 304 299 301 304 301 296 295 295 296 296 298 301 300 298 301 304 307 316 321 316 310 305 301 297 296 300 302 298 298 299 300 302 301 301 303 304 304 306 311 317 307 298 299 299 297 299 299 300 300 299 299 300 299 300 300 300
307 308 307 307 307 309 312 311 312 312 305 302 302 301 300 300 299 300 300 299 299 299 302 303 300 300 299 298 301 300 297 301 303 300 300 302 299 296 295 295 295 295 296 297 296 296 301 304 305 314 322 322 321 317 311 306 302 302 301 298 298 299 300 303 303 303 306 305 301 305 314 315 306 302 302 299 298 300 300 300 300 299 300 300 299 300 300 300
307 308 307 308 308 307 307 304 304 308 307 308 306 301 302 304 300 298 299 299 299 298 300 300 299 300 300 300 304 304 299 298 301 302 303 303 301 296 295 295 295 294 296 296 294 296 301 302 302 310 318 319 318 313 306 304 304 304 302 300 300 299 299 303 304 305 308 305 302 305 308 307 305 304 303 301 301 300 298 299 300 300 301 301 300 300 300 300
306 307 306 309 309 307 305 303 303 305 306 310 309 303 305 306 300 298 299 299 299 298 298 299 298 301 304 304 307 307 301 300 301 302 303 303 299 295 294 295 295 295 296 296 294 297 303 303 300 302 307 308 308 306 302 302 303 304 304 303 301 299 298 301 304 305 305 304 307 307 301 302 305 304 302 303 302 298 297 298 300 300 300 301 301 300 300 300
307 305 303 307 311 309 307 305 304 302 301 305 306 303 305 307 303 302 301 298 298 299 300 302 301 303 306 305 307 308 303 304 304 301 301 301 298 296 296 295 295 295 295 295 293 296 303 304 299 299 305 305 302 299 299 300 301 301 302 302 302 300 299 300 301 302 302 303 307 306 301 301 303 302 301 301 299 298 298 299 300 300 300 300 301 300 301 300
305 305 302 305 308 306 305 304 302 302 301 304 306 304 306 310 307 304 300 298 300 299 300 304 306 304 302 302 308 312 307 307 307 304 303 302 299 300 302 300 296 294 294 295 293 294 300 305 300 297 303 306 301 297 296 298 300 301 300 300 300 300 299 299 300 299 300 302 302 301 300 300 300 299 299 299 299 299 299 300 300 300 300 301 300 300 300 300
304 306 304 304 305 302 302 302 301 306 305 304 308 306 304 310 310 303 298 300 305 302 299 306 310 302 298 301 310 311 306 307 310 306 304 304 302 302 304 303 299 295 294 295 294 294 297 303 301 297 303 309 303 296 297 298 300 302 301 298 298 299 298 297 297 298 298 299 299 298 299 299 298 298 298 299 300 300 299 301 301 300 300 300 300 300 300 300
305 306 304 305 305 301 302 301 301 308 310 307 309 307 304 309 308 303 300 300 303 303 301 305 307 300 298 303 308 307 302 302 305 302 301 302 302 301 301 300 300 300 298 295 295 296 297 301 300 299 307 313 304 299 301 300 298 301 303 302 298 297 299 299 297 297 298 299 299 299 300 302 300 298 298 300 301 300 300 301 300 300 300 300 300 300 300 300
304 304 303 306 308 302 301 301 301 305 310 308 305 304 305 306 302 301 304 301 298 301 301 299 301 303 304 304 305 303 300 299 300 299 298 299 299 299 299 298 298 300 300 297 297 297 298 303 303 300 309 315 306 301 301 301 305 309 311 311 306 299 298 299 297 297 297 298 300 301 303 303 299 297 300 302 300 300 301 300 299 300 300 300 300 300 300 301
Wind_Speed
17 15 13 13 12 12 12 13 14 15 15 14 15 15 17 17 12 11 12 12 12 12 13 15 18 20 22 23 27 29 26 18 16 25 33 30 22 18 18 16 16 13 9 10 11 12 13 13 11 12 16 18 20 16 14 15 14 12 8 5 5 3 1 2 3 7 9 5 7 8 14 18 9 10 15 14 19 20 18 17 14 12 12 11 10 10 8 7
17 15 14 13 12 12 13 14 15 16 16 15 14 14 16 18 17 14 9 10 12 11 10 8 9 10 12 15 18 24 27 21 23 33 32 23 19 18 18 16 15 12 7 9 10 11 12 13 9 10 17 22 19 17 16 17 21 13 3 5 5 1 3 7 11 12 12 10 12 12 12 15 10 7 9 7 11 15 15 12 11 12 12 11 10 10 9 8
16 15 13 12 11 12 13 14 15 16 18 18 15 12 12 13 16 19 18 14 6 10 14 12 9 6 4 6 7 13 20 21 24 32 27 20 21 20 19 15 14 11 10 13 13 11 13 14 10 12 25 27 21 25 23 16 19 14 7 7 3 6 10 15 20 17 17 18 17 14 13 17 11 8 10 10 11 14 11 7 9 11 10 10 10 9 9 8
14 14 13 11 11 11 12 13 14 15 18 19 18 15 11 10 10 14 20 25 22 11 3 9 14 14 10 6 2 2 11 21 26 31 24 19 19 20 20 16 14 11 10 12 14 13 14 15 14 21 30 24 25 32 23 14 14 9 7 6 5 14 13 14 24 21 22 23 21 19 17 17 12 10 9 10 10 9 7 7 7 9 9 9 8 8 8 8
12 13 12 10 9 10 10 12 12 13 15 15 15 15 13 11 9 9 14 23 29 26 20 12 4 8 12 11 8 9 4 9 18 26 24 19 17 18 18 16 14 10 7 9 11 13 14 18 23 28 25 15 21 25 17 16 20 11 10 12 12 18 12 12 24 23 23 24 21 18 13 11 12 13 10 10 8 2 4 6 5 7 8 8 7 7 8 9
10 11 12 10 9 9 9 10 11 11 11 11 11 10 11 11 11 10 9 14 22 27 29 29 25 17 9 5 5 2 7 5 15 25 25 20 16 16 15 13 12 10 6 6 10 14 17 24 28 26 20 14 17 15 13 16 19 12 10 16 18 19 16 14 21 19 20 22 17 14 12 14 16 14 14 16 11 5 7 7 6 7 7 7 7 7 8 9
10 10 10 10 9 8 8 8 9 10 9 9 10 11 10 9 11 13 9 6 11 17 23 26 30 30 28 24 19 24 29 17 18 23 22 21 16 14 11 9 9 10 13 14 18 21 25 33 33 29 21 14 16 17 25 28 26 19 9 15 21 23 22 18 20 18 18 20 17 16 15 14 14 10 10 13 10 7 8 7 6 6 7 7 6 7 8 8
10 10 9 10 9 8 9 9 9 10 9 9 10 11 12 11 11 13 15 9 6 7 9 12 14 16 19 22 28 37 34 22 21 22 19 20 17 12 9 8 8 8 15 20 22 25 30 33 31 29 19 12 17 20 29 31 23 15 10 15 20 22 25 22 23 22 22 23 21 21 18 14 14 13 9 8 8 8 7 6 6 6 7 7 7 7 8 9
10 10 10 10 8 8 9 9 10 10 10 11 12 12 12 12 12 13 17 15 10 7 5 6 4 4 4 9 25 31 22 18 21 21 19 20 19 15 12 14 11 9 15 17 17 20 25 25 22 26 22 17 20 15 18 17 8 9 16 20 20 21 23 23 23 23 23 21 21 20 14 11 10 9 7 5 6 5 4 4 4 5 6 6 7 7 7 8
11 10 11 10 9 11 11 11 11 11 12 13 13 14 14 13 13 15 18 17 16 12 9 11 7 5 7 13 27 19 11 17 20 19 21 19 17 18 19 20 17 17 22 23 22 23 28 30 30 35 29 19 17 14 15 15 13 21 26 24 23 22 20 22 21 20 19 15 18 17 8 7 5 3 3 3 4 2 2 3 2 4 5 6 6 5 5 5
11 11 11 11 11 12 11 12 12 13 13 14 15 15 16 17 16 15 17 17 17 17 19 20 16 13 16 26 33 17 10 18 19 20 22 20 19 21 24 22 18 19 23 27 28 29 31 29 26 25 21 20 22 22 22 25 27 29 30 22 18 20 17 17 18 16 14 11 17 19 11 10 8 4 2 1 2 2 1 1 0 2 4 4 4 2 2 4
11 12 12 13 13 12 11 11 12 13 13 13 15 16 16 17 17 14 14 14 15 20 19 16 16 16 23 34 33 18 13 17 17 18 19 23 26 27 27 23 21 20 19 24 25 23 20 13 12 15 19 25 20 15 19 28 30 26 25 16 9 13 10 8 10 10 9 8 9 11 8 7 6 1 0 1 2 3 2 2 0 1 2 2 1 2 2 5
11 12 14 14 13 11 10 8 9 10 11 12 12 15 17 16 16 14 14 17 16 17 9 8 11 9 17 28 24 15 14 15 13 14 18 25 27 27 28 25 26 25 22 24 21 15 13 12 20 26 24 22 14 14 21 24 22 15 13 10 3 6 6 6 5 5 6 6 6 1 3 3 6 4 2 0 3 3 1 2 1 0 1 2 2 2 2 5
12 14 16 17 17 17 17 16 14 10 8 9 11 14 16 17 18 17 17 18 16 14 12 16 16 13 20 22 16 15 14 12 11 14 19 23 24 25 25 25 26 28 28 30 26 23 23 25 32 30 23 23 22 23 19 11 9 5 3 4 3 4 2 5 4 2 3 3 4 2 3 3 7 6 3 1 3 2 2 3 2 2 3 3 1 1 4 7
15 19 22 23 24 24 25 26 25 22 15 9 8 10 13 13 14 16 17 17 15 14 13 14 15 21 29 20 13 13 10 10 14 17 18 17 19 21 21 22 23 25 28 29 28 28 28 29 34 29 22 27 26 17 7 3 3 3 3 3 5 4 1 5 3 4 1 3 2 4 3 3 6 6 4 2 2 3 2 4 4 3 3 2 1 2 5 7
20 24 24 23 22 22 23 23 24 26 25 19 10 8 9 11 12 15 19 20 19 14 10 11 12 19 22 13 11 13 10 12 15 17 16 15 15 16 16 16 17 18 20 22 21 20 22 25 29 25 17 16 10 5 4 5 4 4 4 2 2 3 1 3 2 7 2 4 4 5 3 2 5 6 5 3 2 3 3 5 4 2 2 3 2 3 4 6
20 21 19 17 16 17 18 19 20 20 22 25 22 14 10 10 11 12 12 15 17 15 18 18 15 19 19 10 11 15 15 14 14 14 14 14 13 12 11 12 15 15 14 15 12 12 17 19 16 12 12 9 4 3 5 4 3 4 4 3 1 2 2 1 2 8 7 4 3 6 4 4 5 5 5 4 2 2 4 5 3 4 4 3 3 3 4 6
14 13 11 9 8 10 12 13 15 14 14 19 24 25 21 15 9 8 6 5 7 10 15 17 12 12 15 12 11 16 16 13 13 13 12 13 14 13 11 11 13 12 12 13 11 13 15 14 10 4 7 8 6 6 5 1 2 1 2 3 2 1 2 2 1 4 6 6 4 5 4 4 6 5 6 5 3 3 4 5 3 5 5 5 4 4 5 7
8 6 4 3 4 6 7 8 10 9 9 11 15 21 23 24 23 22 24 21 16 11 8 16 17 8 6 12 11 15 17 14 11 10 9 12 15 15 14 12 10 10 10 10 11 16 12 10 10 5 5 6 5 5 2 4 3 2 3 4 4 3 1 1 2 3 2 6 4 3 3 4 6 6 7 6 5 5 5 6 6 6 7 6 6 6 7 9
7 5 2 3 4 5 5 7 8 7 7 8 9 10 11 17 21 24 36 40 34 24 14 19 25 18 12 13 10 12 17 16 12 9 7 9 12 12 14 13 14 16 14 5 5 13 13 9 7 2 4 6 6 5 3 3 4 5 5 5 4 3 1 3 4 5 1 4 3 1 4 5 6 7 9 7 6 7 8 8 8 9 8 8 8 8 9 10
9 8 6 6 6 7 6 8 10 12 15 14 14 13 11 14 13 13 27 35 31 28 25 23 23 22 21 18 13 10 15 17 16 15 10 6 5 6 10 11 13 13 10 4 5 11 14 9 3 3 5 5 5 5 1 4 5 6 6 5 4 2 0 3 3 5 4 3 2 1 3 5 6 7 10 8 7 9 10 11 11 11 10 9 10 10 10 11
11 10 9 9 9 8 8 11 14 17 19 17 18 22 22 23 22 20 24 24 23 26 26 24 22 21 20 21 18 11 15 19 19 21 17 12 10 6 11 15 10 5 6 6 5 6 10 6 5 8 5 0 6 7 6 8 7 5 4 5 3 1 1 4 4 6 5 3 2 2 2 5 7 6 10 11 10 9 10 12 12 11 11 11 12 12 12 11
11 10 10 9 9 9 8 11 14 14 12 9 13 21 23 23 23 24 24 18 17 21 22 23 24 22 18 18 19 16 21 19 16 20 20 20 21 17 19 17 8 5 7 7 4 4 6 3 8 9 6 7 7 9 8 8 6 4 3 4 1 1 1 1 4 6 5 2 1 2 1 4 5 5 8 11 12 10 10 11 12 12 13 13 13 13 13 12
11 10 10 9 8 8 7 9 10 9 7 5 9 14 15 16 15 17 18 13 9 13 18 19 21 23 20 15 15 19 25 21 18 20 17 15 15 13 15 12 7 7 6 6 8 9 5 4 8 7 10 8 7 9 9 6 5 3 3 4 2 1 1 2 3 5 4 3 3 4 3 4 4 4 6 8 9 10 10 11 13 14 13 12 12 12 13 12
10 10 9 8 7 6 6 7 7 8 6 4 7 10 10 9 7 6 8 8 5 8 13 13 14 19 18 13 9 13 19 21 21 21 16 13 8 6 7 6 6 3 1 3 10 9 4 7 6 5 8 8 8 7 6 2 3 3 2 3 3 1 1 3 4 4 4 4 2 4 3 4 4 4 7 5 4 8 10 11 14 14 12 12 12 13 12 12
11 10 10 9 6 5 4 5 6 7 5 3 5 6 6 4 3 3 3 5 4 7 10 9 9 12 16 15 6 3 8 11 16 20 16 12 7 6 5 5 5 3 4 3 6 4 4 9 9 6 5 6 7 5 1 2 4 2 1 4 4 3 2 4 5 4 2 2 1 3 3 3 5 4 7 4 4 7 9 8 10 11 9 9 11 10 9 8
12 11 11 9 6 5 3 4 6 6 4 4 5 3 2 1 2 2 2 6 4 5 7 7 7 8 13 17 10 2 2 2 7 18 19 13 8 7 5 4 4 2 1 3 4 2 3 8 10 7 5 5 5 3 1 2 5 1 1 4 4 4 3 3 4 2 1 2 2 3 4 1 3 5 6 3 3 6 7 6 5 2 2 3 5 5 5 6
12 13 12 9 7 5 3 3 4 4 3 4 4 4 2 1 1 2 4 5 3 3 4 5 5 6 8 13 16 11 6 2 2 11 18 16 12 13 11 5 4 3 4 4 4 2 3 5 6 4 5 5 2 1 3 2 5 1 3 2 2 3 3 2 4 2 1 2 4 5 3 1 4 5 4 3 2 6 6 6 3 1 2 1 4 5 5 7
13 14 13 10 8 5 4 4 3 3 2 3 4 4 2 3 3 2 5 3 2 2 3 3 3 6 6 8 15 16 11 9 6 6 11 15 15 16 13 8 10 11 11 9 6 2 2 2 2 2 4 3 3 4 3 2 3 2 3 2 2 3 3 3 4 2 3 4 3 5 3 1 4 5 3 2 2 5 5 6 6 4 2 3 6 7 7 8
13 14 14 12 9 6 4 3 2 1 2 3 4 5 5 5 4 5 5 1 1 2 3 4 3 7 8 4 9 15 11 10 10 8 9 12 14 17 13 8 11 11 9 11 7 1 0 1 1 2 3 3 4 3 3 1 2 4 4 4 3 4 4 3 3 3 4 3 5 5 1 2 3 4 3 3 4 5 4 4 7 8 6 5 7 8 8 9
12 14 14 12 10 7 5 3 2 1 3 5 6 8 7 3 4 6 3 1 1 2 4 4 3 6 8 4 4 10 8 9 11 9 8 8 10 12 9 4 5 6 4 6 5 3 3 2 2 1 2 5 2 1 3 2 3 4 3 4 3 2 4 3 4 4 3 3 5 3 1 3 1 5 4 5 5 5 6 5 6 8 7 7 8 9 9 10
12 14 14 13 11 9 7 5 3 3 4 7 8 9 6 3 5 3 0 2 1 1 2 2 3 4 4 4 4 5 4 6 10 8 4 4 5 6 5 1 0 3 3 2 2 4 4 2 3 2 2 7 4 2 3 4 4 4 3 4 4 2 4 2 3 3 1 5 3 2 2 1 4 6 5 5 7 7 9 8 7 7 7 7 8 9 9 10
12 13 15 14 12 11 9 6 5 5 5 8 9 6 5 5 2 1 2 1 0 1 0 0 2 2 2 4 4 4 3 3 6 6 3 2 4 2 2 2 1 1 1 1 1 3 2 4 6 3 2 8 6 3 1 3 3 4 2 3 4 3 3 2 4 2 3 5 3 1 2 1 4 5 5 7 8 10 10 9 8 7 7 8 9 9 10 11
10 13 15 13 12 12 10 8 5 6 7 8 7 4 7 5 1 1 1 2 1 1 1 1 2 3 4 4 2 3 3 2 3 5 3 3 5 3 3 5 6 3 2 3 2 2 2 3 5 3 2 6 5 3 1 0 2 1 2 4 4 4 4 2 3 2 3 5 4 3 1 2 2 3 4 7 7 8 8 8 9 9 8 9 10 9 10 11
9 11 13 13 13 12 11 9 6 6 6 5 4 6 6 2 3 2 2 4 1 1 1 2 3 5 5 4 2 1 2 1 3 5 4 3 2 2 3 4 6 4 2 2 1 2 3 2 3 1 1 3 3 1 1 2 0 1 1 3 2 3 4 3 3 4 2 3 4 3 2 4 3 4 4 3 4 6 7 9 11 11 10 10 11 10 10 12
8 9 12 14 14 13 11 9 6 5 3 3 6 6 3 3 2 3 2 1 2 2 2 2 4 4 3 4 3 3 2 1 2 4 3 2 1 1 1 2 3 4 2 2 1 1 3 1 3 2 1 2 3 2 0 1 1 1 2 1 1 2 5 5 2 1 4 1 3 2 3 4 3 4 4 4 5 7 8 10 11 12 12 11 11 11 11 12
6 7 12 15 14 13 11 8 7 5 1 4 7 3 2 1 1 2 1 2 2 2 4 2 1 2 0 1 3 4 3 1 2 3 2 1 1 1 2 2 2 3 2 2 1 1 3 1 3 2 1 2 3 3 2 0 2 2 2 3 2 3 4 4 2 3 5 0 4 3 3 5 3 2 5 5 5 7 8 9 9 11 11 12 12 12 12 13
5 5 11 16 14 13 11 8 7 4 5 8 6 2 2 0 1 2 1 1 2 3 4 3 0 0 2 2 1 4 2 2 2 3 2 0 1 0 1 2 2 4 5 2 1 0 2 1 3 1 1 3 4 2 2 2 1 2 2 4 2 2 0 2 2 1 2 1 5 5 4 3 2 3 4 4 5 6 7 7 8 11 12 12 13 13 13 14
5 3 10 15 14 12 11 9 5 3 6 8 3 2 1 1 1 1 1 1 2 3 3 2 1 2 1 2 1 3 1 1 1 2 1 1 1 0 1 0 1 4 7 3 2 1 1 2 2 2 1 3 5 2 0 3 3 2 2 1 1 2 3 1 2 2 2 1 3 5 5 3 5 5 4 6 7 6 5 5 8 12 13 12 14 14 14 14
5 2 7 14 13 11 10 8 8 7 6 4 3 2 0 1 2 2 2 1 1 2 1 2 3 2 1 1 1 1 2 2 2 2 1 1 1 0 1 1 1 4 6 3 3 1 1 2 2 4 3 2 1 1 2 2 1 2 3 2 2 1 1 1 1 2 3 3 2 1 4 5 6 4 6 7 7 7 7 7 9 12 13 13 13 13 14 14
5 2 5 11 13 10 7 7 11 9 6 3 2 2 1 2 3 3 3 2 1 1 2 3 3 3 3 2 1 1 1 2 2 2 0 1 1 0 1 2 1 3 3 2 3 2 1 1 1 3 3 0 2 1 2 3 3 2 0 1 1 1 2 1 3 3 2 2 4 3 3 8 6 3 6 7 7 9 8 7 10 13 14 14 13 12 13 14
5 2 4 11 12 8 5 7 9 6 4 3 3 2 2 3 3 3 3 2 1 1 2 3 3 3 3 2 1 1 2 2 1 1 1 1 1 1 1 2 2 2 1 1 1 1 1 3 2 2 3 2 3 1 3 2 2 4 2 1 2 2 3 4 2 4 0 0 1 3 1 7 6 5 8 7 6 7 7 7 10 13 14 13 12 12 13 13
5 3 4 10 10 4 5 6 5 5 4 3 3 4 3 2 2 2 1 1 1 1 2 1 1 2 1 1 2 2 2 1 1 0 1 1 0 1 1 1 1 0 1 1 1 0 1 3 2 3 4 3 3 0 2 1 2 2 2 1 2 1 2 4 4 3 2 2 1 3 2 7 6 4 8 8 6 7 8 8 10 14 14 11 10 12 13 13
5 5 6 11 10 2 4 4 2 2 2 2 4 4 3 2 2 2 1 1 1 1 2 1 0 2 2 2 3 2 1 1 0 0 1 2 1 1 2 1 2 2 2 1 1 1 0 1 2 2 4 6 6 4 3 2 1 1 2 2 2 3 5 3 2 3 1 4 5 4 4 7 5 3 4 6 6 8 10 10 12 15 13 9 10 13 13 13
3 3 6 12 11 5 6 5 7 6 2 3 4 2 2 3 3 2 2 2 2 2 2 2 1 3 3 3 4 3 1 1 0 0 1 1 1 1 1 1 2 1 2 2 2 2 2 1 2 3 2 1 2 3 3 2 1 1 1 2 3 4 5 3 1 3 2 4 4 5 5 6 6 5 4 6 6 8 14 17 16 15 11 10 12 14 14 14
2 2 3 7 10 10 11 8 10 10 5 5 4 1 2 2 1 2 3 2 3 3 3 3 3 3 3 3 4 3 2 2 1 2 2 1 2 1 1 1 0 1 2 2 1 2 2 1 1 5 5 5 5 5 4 2 2 2 2 3 5 5 5 5 3 2 4 2 3 7 6 6 11 9 6 7 6 7 15 20 19 15 11 12 14 14 15 15
2 1 1 3 6 10 12 9 8 10 7 6 4 2 4 3 0 1 1 0 2 3 2 2 2 2 2 3 4 1 1 2 2 2 2 2 1 1 2 3 1 1 1 1 1 2 3 1 1 4 5 6 6 6 4 1 3 6 5 5 7 6 5 6 5 5 4 3 4 7 3 3 11 10 7 8 7 8 15 20 19 15 13 14 14 14 16 16
2 2 2 3 2 3 5 4 6 11 9 5 3 3 4 3 2 2 2 1 2 2 1 1 2 3 5 5 4 3 2 2 2 1 2 2 1 1 1 3 3 2 1 1 1 2 4 2 3 3 5 8 6 5 4 3 4 5 6 7 7 8 9 10 10 7 7 5 8 5 1 5 12 11 9 13 14 14 19 20 17 15 15 15 14 15 16 16
4 4 4 5 3 3 5 5 9 13 9 4 3 2 4 6 5 4 2 3 0 3 2 2 5 5 4 3 4 4 4 2 1 3 3 3 2 1 0 2 2 2 1 1 0 1 2 2 2 2 4 8 7 5 4 5 4 4 7 9 8 9 12 13 10 7 7 10 12 8 7 12 16 13 15 22 24 20 18 17 14 14 15 14 14 15 16 16
4 4 5 7 7 7 9 8 9 9 5 3 2 2 4 7 7 4 3 4 2 3 4 4 5 5 4 3 5 2 5 5 3 4 6 5 2 3 2 2 3 2 1 0 1 1 1 2 1 3 3 8 5 2 2 4 5 6 8 7 7 7 9 10 8 6 6 10 11 8 10 14 16 15 16 20 19 14 13 14 14 15 14 13 15 16 16 17
4 4 6 7 5 5 6 5 4 5 2 0 3 4 4 6 8 6 4 2 2 3 5 6 8 6 3 2 3 1 3 4 3 2 6 6 3 4 3 2 5 4 1 1 0 1 2 0 1 4 3 6 4 2 3 3 2 7 10 8 9 8 6 6 6 5 7 7 4 3 6 9 10 9 8 10 9 9 11 13 15 17 15 15 17 17 17 16
6 6 6 5 3 2 5 3 3 3 2 2 4 6 4 6 11 11 5 1 3 2 4 8 12 8 3 2 4 2 3 5 6 7 7 5 5 6 5 4 6 5 3 3 1 1 2 2 1 2 1 6 5 3 4 4 4 4 7 6 10 9 6 5 4 6 9 7 4 5 8 7 3 3 3 5 7 10 14 15 16 18 18 18 18 18 16 14
Wind_Direction
51 62 73 79 80 82 85 80 75 69 67 82 96 86 72 73 92 136 154 149 138 126 115 106 95 90 83 77 69 66 71 84 91 70 52 39 38 46 45 48 57 62 78 89 90 96 104 99 96 108 103 86 75 76 74 61 58 67 74 68 86 100 49 146 162 134 129 130 126 120 106 110 115 94 89 75 72 79 81 77 76 76 79 81 87 94 92 87
51 59 68 74 77 80 84 81 78 74 71 84 102 96 81 74 75 91 131 172 192 197 186 164 126 101 88 78 67 63 61 74 80 60 47 47 56 55 52 59 61 62 80 88 89 95 101 95 100 124 101 76 61 73 76 61 60 57 83 85 69 111 57 92 117 118 121 131 119 110 101 99 107 109 98 80 62 69 71 65 70 70 75 84 86 85 78 70
52 57 65 71 74 81 86 84 80 81 79 82 94 100 91 83 78 76 79 88 127 211 221 219 208 202 130 80 62 58 47 58 57 38 37 51 54 51 49 53 54 51 57 67 75 86 102 103 115 114 88 69 58 76 74 60 63 51 69 85 71 101 74 85 105 112 121 124 109 97 94 87 93 107 104 104 71 54 56 53 63 65 72 80 75 72 63 53
53 55 62 70 74 84 93 87 80 86 86 81 82 83 86 89 87 78 74 72 67 73 170 223 227 230 226 241 280 350 30 48 35 18 30 46 46 48 43 41 44 37 42 63 72 87 106 114 123 102 84 67 60 73 63 52 78 53 59 91 111 101 79 86 104 110 115 116 106 100 97 83 81 98 112 115 78 40 51 59 58 62 67 70 66 62 51 42
52 53 58 68 75 87 99 90 81 87 89 81 74 69 71 77 83 85 84 80 72 69 70 75 149 213 225 236 253 269 313 38 17 17 35 42 44 46 39 42 40 20 35 68 81 99 116 118 113 92 79 62 60 70 55 66 92 72 59 84 98 102 90 95 105 109 112 112 107 97 93 93 85 76 78 99 99 68 67 63 56 60 58 54 51 51 40 31
49 51 54 62 74 84 97 95 83 85 90 74 58 54 62 67 70 70 85 97 85 75 73 74 79 88 102 137 197 184 99 68 9 25 38 39 46 45 39 45 34 16 44 85 104 114 117 109 103 88 77 69 63 73 68 73 97 93 62 75 91 102 100 105 107 111 116 109 101 97 102 108 94 73 69 83 92 104 91 80 71 60 51 48 42 42 35 28
48 52 52 55 67 82 93 97 85 81 85 67 50 53 62 62 60 50 51 116 119 91 84 84 83 85 87 93 106 91 78 58 27 36 41 43 50 50 45 52 47 51 77 99 110 110 106 98 96 92 84 79 76 85 83 78 87 97 86 80 92 101 100 108 109 109 111 104 105 111 108 100 96 93 78 77 85 94 91 85 77 60 47 50 43 42 38 29
46 51 51 49 61 83 91 94 87 78 77 69 57 62 69 65 58 48 49 75 147 132 102 95 95 95 85 82 85 73 57 38 37 46 50 52 57 62 61 64 62 72 86 95 102 102 99 95 95 92 83 92 102 100 95 85 72 80 105 99 97 101 102 106 106 105 103 105 109 103 95 91 96 100 86 82 92 90 88 80 71 57 44 46 41 41 35 26
45 49 46 42 61 86 94 94 88 82 79 75 66 67 73 68 68 66 60 64 84 111 116 94 112 134 102 79 79 66 39 32 45 50 60 64 65 72 78 73 66 81 88 91 99 100 99 99 103 106 106 111 109 106 102 93 68 96 112 110 106 104 107 109 106 108 107 108 107 96 91 93 98 94 73 82 99 90 94 80 58 47 33 32 32 34 30 18
47 46 42 50 79 95 99 97 93 90 83 78 71 71 74 73 87 86 71 72 79 87 96 81 72 104 125 104 87 73 33 50 55 56 66 73 79 81 82 81 79 87 91 90 88 89 98 105 108 110 109 104 100 94 91 100 120 119 111 108 109 109 111 111 110 112 109 107 104 102 97 79 94 121 75 91 99 72 107 89 55 36 23 25 21 22 22 4
50 44 48 69 93 100 100 98 95 91 85 80 74 76 79 78 94 96 78 81 88 92 95 90 86 101 113 94 82 74 54 62 61 61 69 78 84 80 75 78 83 85 90 90 88 92 98 104 107 102 95 96 96 87 92 113 123 120 112 102 100 105 106 107 116 119 107 110 105 100 90 61 62 97 106 142 89 356 257 171 70 28 15 19 11 18 55 24
50 48 66 86 94 97 96 94 92 90 87 84 78 78 84 86 94 92 78 85 106 113 103 85 86 95 94 79 69 65 65 67 62 61 74 81 79 77 73 74 81 83 91 95 100 108 102 96 106 106 108 110 103 89 108 121 120 116 110 102 93 96 84 76 119 135 119 138 128 92 70 30 10 31 126 106 49 336 256 199 146 28 352 15 51 120 89 30
52 64 84 91 90 89 88 86 91 92 86 86 85 81 84 87 85 79 78 83 102 123 115 69 90 105 85 70 58 65 72 67 67 72 83 85 80 79 76 75 79 81 86 91 100 115 109 104 110 113 117 113 108 118 126 124 117 112 102 100 93 66 31 22 93 146 123 153 205 137 51 321 297 271 245 299 357 345 164 143 92 212 203 140 125 113 31 1
65 85 95 93 90 86 81 78 78 85 94 98 93 83 81 82 77 74 85 93 92 99 92 81 92 97 86 76 60 67 70 68 83 88 90 89 86 84 82 81 81 83 84 86 92 100 104 107 106 103 100 104 115 122 121 117 108 102 81 70 39 67 356 345 45 91 111 158 229 118 109 256 272 270 235 202 339 348 139 125 118 141 145 139 135 344 332 341
90 104 103 98 92 84 78 74 71 70 74 92 110 94 81 78 76 72 80 94 91 87 86 80 83 83 81 74 59 67 77 87 83 77 82 89 88 82 79 82 85 88 89 88 91 97 102 101 95 89 92 107 116 115 95 37 46 46 74 15 2 85 265 299 20 33 112 170 31 69 133 257 267 255 228 190 321 319 183 145 136 138 143 171 253 301 320 337
108 111 106 101 91 84 78 74 71 67 64 66 87 113 99 89 95 93 85 81 81 81 82 78 76 78 74 59 56 70 78 77 66 65 73 80 79 74 76 85 90 93 95 95 98 101 101 93 85 79 85 102 101 86 60 37 13 11 79 89 2 95 65 303 10 16 51 159 22 30 146 229 268 242 226 208 292 318 183 162 152 164 185 201 251 295 319 335
116 113 108 100 87 81 76 74 73 72 68 65 71 87 105 101 105 108 82 68 77 80 80 82 80 75 66 51 50 49 50 58 60 70 75 72 71 72 86 98 94 95 97 99 104 106 94 83 83 75 61 56 23 69 79 33 356 358 46 88 92 137 108 343 327 7 36 107 24 26 110 205 253 228 215 220 260 298 187 179 186 194 203 218 246 290 317 329
122 118 111 93 70 62 59 62 65 71 78 76 76 79 86 90 104 113 74 61 97 82 67 60 65 79 57 33 37 36 37 50 59 70 73 72 71 67 81 98 100 106 94 82 71 71 78 70 75 80 36 29 9 45 76 114 163 133 93 108 87 89 83 84 268 341 26 61 62 52 85 223 257 248 224 220 234 256 215 202 219 213 213 229 249 281 302 315
120 131 123 42 14 22 28 36 45 61 91 100 90 83 85 86 87 82 73 73 75 71 53 40 50 96 59 25 42 47 45 49 52 64 76 76 75 71 75 86 105 109 78 61 35 40 63 60 53 50 6 0 352 17 112 165 131 133 144 129 111 97 34 312 272 286 71 72 53 87 130 213 248 253 234 218 224 247 241 226 227 224 223 235 255 274 290 307
88 102 89 10 7 15 18 31 42 62 100 121 111 93 90 82 75 64 63 67 68 71 80 63 62 77 65 41 55 60 54 53 52 56 64 73 81 73 68 80 90 76 53 41 9 33 66 73 42 20 323 314 306 305 245 191 107 99 103 93 90 106 26 302 289 308 6 88 358 115 151 214 235 243 235 213 224 245 241 236 232 226 229 240 254 268 287 304
68 71 66 56 44 46 62 67 72 87 95 100 98 91 87 79 82 78 70 69 66 66 68 65 63 62 55 48 55 68 65 64 60 55 45 53 76 49 47 65 76 58 20 21 66 51 68 74 14 305 283 290 327 337 68 109 94 87 99 100 64 82 1 284 271 315 349 89 323 16 131 241 247 244 236 215 227 244 241 243 237 229 232 242 256 272 288 303
60 60 59 60 57 63 84 93 96 100 95 89 83 83 85 86 92 95 87 78 66 60 59 59 60 57 54 51 50 62 68 59 49 48 50 63 74 64 64 64 66 58 349 19 78 53 56 57 334 322 303 76 35 21 67 82 79 69 87 109 65 41 279 298 302 326 359 67 282 271 150 260 265 257 245 229 229 243 248 248 243 238 243 253 266 280 288 297
55 55 55 58 62 69 94 112 114 112 101 81 75 82 87 89 91 88 87 87 68 53 48 51 50 47 48 48 46 55 61 48 25 32 44 64 73 72 75 71 66 74 23 26 90 86 70 12 323 347 29 84 57 27 51 68 63 54 61 101 103 0 49 315 312 327 346 54 157 158 105 292 289 295 268 240 234 252 258 253 253 255 263 272 277 281 285 292
51 52 53 55 65 72 96 125 134 135 121 86 77 87 91 92 96 92 84 88 77 46 39 41 38 36 36 36 43 52 58 50 27 23 30 55 72 68 74 76 66 67 51 55 80 87 93 321 328 20 49 68 73 38 38 63 53 17 52 99 108 15 56 222 291 330 343 9 74 92 35 318 290 300 282 254 244 257 260 259 264 265 270 278 282 285 286 291
47 47 48 50 62 74 97 124 144 156 141 106 91 92 92 89 95 103 85 83 75 20 22 28 26 27 24 26 50 59 59 51 33 25 27 45 69 85 79 68 56 62 215 86 73 78 62 351 9 57 40 47 81 56 22 80 89 1 30 120 137 126 333 316 336 9 23 353 14 84 39 303 293 283 266 279 286 268 270 272 274 276 278 275 279 290 291 288
45 42 40 41 51 67 98 129 145 162 154 131 130 104 90 77 69 109 93 71 46 346 2 14 11 17 14 12 18 68 57 45 32 29 33 41 55 102 92 31 55 116 201 130 85 91 36 20 46 77 58 52 74 71 359 130 111 25 15 140 134 108 49 16 20 41 52 301 299 89 114 259 310 294 255 283 320 287 292 294 284 284 285 277 278 289 290 285
44 38 32 30 38 59 101 140 150 166 163 149 165 161 127 66 70 130 68 48 24 336 359 2 2 19 18 15 18 99 80 16 32 31 37 47 55 96 98 8 47 83 203 117 77 47 15 20 32 44 58 62 62 56 298 126 108 82 226 129 97 69 63 58 66 75 232 264 318 34 101 174 295 273 258 292 305 293 312 319 315 308 269 277 284 286 291 295
39 33 29 29 35 53 81 109 142 163 166 170 186 205 219 210 172 164 88 66 352 336 10 1 18 31 28 34 43 68 74 45 54 23 33 53 61 80 83 56 96 68 10 104 122 26 23 19 12 23 44 45 56 284 272 122 101 231 218 142 100 99 112 101 76 60 336 24 322 320 47 83 272 273 301 351 283 284 297 280 268 148 154 324 320 307 310 314
34 29 28 32 37 50 66 75 125 162 174 183 186 196 189 139 151 100 78 92 305 338 12 351 4 2 3 38 42 47 53 48 51 17 36 58 63 75 82 79 94 77 43 69 124 167 71 45 346 64 67 18 264 262 281 99 94 191 172 96 58 76 82 73 66 51 26 49 281 287 33 72 274 282 311 348 255 260 266 257 241 215 223 319 328 319 312 311
32 28 27 30 35 44 56 66 96 152 175 176 169 161 138 116 112 64 53 92 306 336 341 351 342 346 359 25 24 27 39 40 33 33 55 66 64 72 83 85 80 76 51 55 79 155 135 126 316 71 74 306 263 281 343 69 125 137 112 54 42 29 34 55 50 71 55 355 260 256 82 97 299 284 244 220 220 209 210 254 249 235 245 286 311 314 306 307
31 28 28 30 36 43 50 57 74 117 149 158 156 149 137 96 73 85 79 239 286 342 353 6 347 359 20 53 16 7 21 26 18 29 50 46 46 51 57 65 51 52 37 32 45 5 4 31 332 26 24 342 329 65 21 30 82 101 85 66 93 352 11 30 354 36 70 286 262 267 344 121 229 272 244 238 248 210 183 211 240 243 256 280 301 309 308 313
28 26 26 30 36 40 47 49 65 110 139 147 150 151 139 47 29 88 202 308 324 329 13 351 326 8 26 47 28 349 1 18 15 34 52 30 39 35 30 81 284 37 26 358 22 12 5 344 329 301 346 13 41 132 4 8 40 67 69 70 93 353 6 17 325 358 220 253 256 339 353 149 229 250 242 246 251 228 210 216 233 251 269 290 307 317 317 319
26 25 23 25 31 35 41 48 69 110 135 143 149 149 99 69 53 203 273 334 35 272 86 12 334 29 43 37 15 338 11 9 2 32 49 51 66 29 358 55 68 108 131 127 67 20 357 309 342 2 342 12 43 120 14 346 16 50 95 100 102 84 47 322 291 321 289 274 272 325 348 291 279 270 231 226 228 222 224 233 246 262 283 304 314 315 315 319
25 26 22 22 30 31 38 49 72 114 133 142 145 95 63 76 167 201 271 250 229 347 39 47 1 32 45 51 343 318 46 26 353 34 27 37 53 2 336 8 21 55 107 85 94 85 74 313 339 30 339 359 32 99 114 105 2 341 190 130 114 133 133 201 245 235 272 290 294 305 306 203 253 285 242 235 243 235 234 244 251 263 280 297 302 302 308 317
24 25 20 23 31 31 38 48 68 112 137 146 102 63 76 133 213 156 193 231 225 21 25 32 58 51 16 359 339 355 78 4 11 49 33 41 71 1 343 331 355 34 80 81 88 91 77 277 288 357 304 358 20 348 129 113 42 271 192 80 88 171 142 139 181 182 197 311 303 278 236 210 221 275 279 287 287 262 254 257 258 266 277 283 286 293 308 318
24 25 20 24 30 31 38 42 56 94 152 147 67 60 118 187 201 162 162 165 138 147 131 42 56 70 4 326 349 10 33 339 22 53 24 41 135 297 344 288 334 28 73 108 116 85 87 271 294 350 339 34 22 314 329 128 231 39 59 80 174 142 115 114 159 69 73 42 290 280 265 292 324 310 317 358 325 289 283 277 266 269 275 274 281 296 312 318
20 26 23 25 27 29 34 39 49 63 104 98 79 85 193 210 176 172 67 58 130 123 110 101 36 85 184 313 328 326 352 349 26 61 35 20 67 319 329 319 333 23 38 82 121 142 122 209 299 19 79 350 357 326 325 225 182 49 58 192 163 76 90 104 102 7 38 32 283 320 291 298 340 315 312 335 310 290 288 280 271 272 272 273 285 300 308 313
20 29 24 23 23 23 28 35 43 58 74 77 82 119 169 168 218 195 24 66 132 88 92 130 132 105 186 141 304 297 340 4 358 55 75 232 48 20 332 333 348 22 14 39 102 20 102 131 297 320 152 317 348 15 326 314 175 87 126 174 130 91 98 51 88 84 30 315 290 314 310 275 223 234 278 274 247 256 277 283 276 274 277 282 289 297 304 310
18 34 24 18 17 20 23 29 37 71 73 72 100 171 140 169 212 167 150 88 111 92 98 168 154 62 139 142 183 277 357 65 63 76 116 140 49 24 97 46 307 10 11 38 116 289 53 104 278 269 206 315 352 57 224 312 333 29 59 37 26 120 165 133 83 145 154 207 284 319 333 282 231 216 202 215 224 229 254 279 278 279 286 289 288 293 302 309
16 52 21 11 14 17 20 38 54 65 70 79 148 166 117 176 140 106 124 113 113 110 129 184 154 102 129 168 193 277 39 81 116 98 99 111 99 5 45 57 314 346 4 45 89 3 18 81 254 291 339 336 325 80 162 176 339 7 11 344 329 25 103 137 20 103 131 144 178 314 315 276 250 209 180 202 221 217 221 243 269 286 298 297 292 295 301 306
23 54 9 7 13 12 24 54 50 56 81 91 112 115 57 142 134 99 89 101 107 102 126 150 138 131 145 140 186 216 58 54 78 93 135 145 103 105 33 59 21 336 354 44 48 18 35 99 206 290 339 277 236 263 146 158 162 142 331 287 164 92 78 84 318 320 91 142 167 155 273 273 259 209 187 196 208 217 226 248 271 292 304 302 299 298 300 306
38 59 8 9 8 6 49 64 41 46 95 93 73 94 108 119 125 111 96 101 105 91 100 111 99 110 137 126 116 161 108 67 21 56 145 220 165 149 116 50 13 345 48 95 358 345 118 95 83 258 247 230 254 242 126 148 148 139 192 272 100 107 108 109 267 281 36 97 143 113 248 272 262 221 212 209 209 228 250 263 278 300 308 303 299 300 303 308
48 55 20 11 6 18 81 69 31 30 66 95 87 92 106 109 116 136 128 88 93 107 85 76 74 91 145 178 123 123 120 117 174 155 184 234 217 150 173 341 312 225 114 156 220 6 61 80 57 298 289 321 325 264 135 76 77 108 250 237 119 126 117 134 182 193 153 211 160 93 267 268 273 245 223 226 244 264 268 268 287 310 314 302 298 307 312 314
54 53 34 19 9 30 118 102 110 77 69 105 85 77 87 74 71 111 138 82 88 115 107 105 122 104 118 119 102 115 160 127 173 210 163 171 142 152 188 287 294 203 165 154 133 125 329 95 82 11 352 349 345 348 345 341 75 193 244 198 146 113 103 130 162 85 352 231 163 137 246 255 273 303 260 257 285 289 281 282 296 309 314 304 301 312 317 318
57 61 41 29 25 63 109 120 139 138 143 116 95 96 98 65 54 75 83 95 95 104 115 120 127 116 113 96 80 63 43 72 192 215 76 112 168 172 178 280 298 186 151 121 104 141 170 152 121 103 91 323 298 297 288 279 246 238 212 173 176 142 134 162 117 77 273 246 156 169 230 259 286 302 292 295 313 302 294 302 309 314 321 315 308 312 316 317
81 89 36 31 37 65 86 103 124 128 150 143 109 129 127 88 59 91 83 92 104 103 99 108 133 115 77 83 85 52 13 24 70 127 130 206 239 235 214 235 13 111 128 109 55 91 117 123 167 157 175 194 201 228 236 162 158 217 207 191 194 174 143 128 110 159 201 189 199 224 236 288 293 285 280 292 299 287 292 306 317 322 326 319 311 311 312 312
81 86 6 37 41 62 75 83 106 119 147 156 133 158 152 129 179 117 96 253 148 134 89 72 142 151 138 138 118 96 310 358 23 104 141 199 225 287 243 224 201 183 182 185 280 87 96 316 253 172 216 233 214 225 234 171 211 213 201 205 202 187 153 144 185 209 160 124 264 258 217 254 277 283 290 291 291 288 294 305 313 315 315 315 313 312 311 310
74 130 130 111 93 78 73 71 109 114 120 130 117 136 143 138 166 172 187 200 176 186 144 60 257 221 188 170 132 129 158 17 350 195 152 174 193 25 301 242 227 226 199 181 248 111 112 234 231 179 259 264 249 244 220 199 239 224 204 213 203 184 181 194 215 203 158 192 252 270 140 231 265 284 290 285 285 287 293 300 304 305 311 316 315 312 309 309
99 112 118 113 118 128 113 121 127 114 104 94 93 137 161 165 181 200 166 115 241 252 183 195 245 221 188 165 113 132 181 159 225 232 183 155 183 147 109 249 222 201 174 141 290 89 113 223 205 162 288 286 280 271 211 194 238 252 230 224 209 197 200 212 228 208 191 237 260 282 294 277 273 272 273 282 287 288 291 296 298 304 314 316 312 310 309 311
136 134 141 120 101 104 114 126 127 109 82 69 106 168 174 166 179 203 170 143 159 212 187 208 216 177 153 133 114 141 217 179 161 217 181 145 157 195 190 203 174 141 84 94 24 55 129 264 180 107 325 297 291 306 186 189 213 244 253 234 208 213 220 227 241 224 217 252 267 282 287 279 276 271 266 277 287 286 284 293 304 311 315 311 307 310 313 314
171 160 155 131 100 102 125 136 124 105 89 148 159 171 183 191 185 161 140 180 184 177 196 193 165 139 92 112 143 262 242 170 122 164 167 147 148 180 187 184 164 138 94 162 64 76 132 291 15 66 4 290 280 2 328 300 254 262 274 250 207 205 215 221 227 205 200 221 245 280 269 259 272 284 269 264 273 274 277 292 310 314 315 311 308 312 317 316
182 172 172 151 116 143 161 146 92 112 178 204 166 166 189 204 180 155 126 269 217 193 224 186 154 131 83 158 184 183 121 119 93 96 121 115 111 127 125 139 147 137 147 154 97 29 122 118 118 74 333 270 283 328 308 327 352 286 269 223 188 193 212 233 251 224 204 189 181 226 236 232 254 295 273 261 266 279 290 302 311 312 314 313 308 310 314 312